| time (UTC) | temp F | wind direction | speed MPH | gust MPH | rain 1hr in | rain 24hr in | rain mn in | humidity % | barometer mb |
| 20260901134203 | 79 | 346 | 2.0 | 3.0 | 0.00 | 0.15 | 0.00 | 89 | 991.4 |
| 20260901133704 | 79 | 0 | 1.0 | 3.0 | 0.00 | 0.15 | 0.00 | 89 | 991.4 |
| 20260901131704 | 77 | 294 | 1.0 | 3.0 | 0.00 | 0.15 | 0.00 | 92 | 991.5 |
| 20260901130704 | 76 | 275 | 2.0 | 3.0 | 0.00 | 0.15 | 0.00 | 93 | 991.6 |
| 20260901130205 | 76 | 287 | 2.0 | 3.0 | 0.00 | 0.15 | 0.00 | 93 | 991.6 |
| 20260901124705 | 75 | 299 | 2.0 | 3.0 | 0.00 | 0.15 | 0.00 | 93 | 991.4 |
| 20260901123703 | 74 | 292 | 2.0 | 3.0 | 0.00 | 0.15 | 0.00 | 94 | 991.3 |
| 20260901121704 | 72 | 77 | 0.0 | 0.0 | 0.00 | 0.15 | 0.00 | 96 | 991.0 |
| 20260901120705 | 71 | 77 | 0.0 | 0.0 | 0.00 | 0.15 | 0.00 | 96 | 991.0 |
| 20260901114703 | 70 | 77 | 0.0 | 1.0 | 0.00 | 0.16 | 0.00 | 96 | 990.7 |
| 20260901113704 | 70 | 31 | 0.0 | 0.0 | 0.00 | 0.16 | 0.00 | 95 | 990.5 |
| 20260901113204 | 70 | 31 | 0.0 | 0.0 | 0.00 | 0.16 | 0.00 | 95 | 990.6 |
| 20260901111204 | 71 | 31 | 0.0 | 0.0 | 0.00 | 0.17 | 0.00 | 95 | 990.4 |
| 20260901110704 | 72 | 31 | 0.0 | 0.0 | 0.00 | 0.17 | 0.00 | 95 | 990.4 |
| 20260901104704 | 73 | 31 | 0.0 | 2.0 | 0.00 | 0.17 | 0.00 | 95 | 990.1 |
| 20260901104205 | 73 | 14 | 2.0 | 2.0 | 0.00 | 0.19 | 0.00 | 95 | 990.0 |
| 20260901103203 | 73 | 299 | 2.0 | 3.0 | 0.00 | 0.25 | 0.00 | 96 | 990.1 |
| 20260901101703 | 72 | 298 | 2.0 | 3.0 | 0.00 | 0.32 | 0.00 | 96 | 990.2 |
| 20260901101204 | 72 | 281 | 1.0 | 2.0 | 0.00 | 0.32 | 0.00 | 95 | 990.2 |
| 20260901100705 | 72 | 269 | 0.0 | 0.0 | 0.00 | 0.33 | 0.00 | 95 | 990.2 |
| 20260901100204 | 73 | 269 | 0.0 | 2.0 | 0.00 | 0.33 | 0.00 | 96 | 990.2 |
| 20260901094704 | 72 | 277 | 1.0 | 2.0 | 0.00 | 0.33 | 0.00 | 96 | 990.3 |
| 20260901094203 | 72 | 277 | 1.0 | 2.0 | 0.00 | 0.33 | 0.00 | 96 | 990.3 |
| 20260901093704 | 72 | 280 | 2.0 | 2.0 | 0.00 | 0.33 | 0.00 | 97 | 990.3 |
| 20260901093204 | 72 | 260 | 0.0 | 2.0 | 0.00 | 0.33 | 0.00 | 97 | 990.3 |
| 20260901091704 | 71 | 280 | 2.0 | 2.0 | 0.00 | 0.33 | 0.00 | 97 | 990.3 |
| 20260901091205 | 71 | 86 | 0.0 | 0.0 | 0.00 | 0.33 | 0.00 | 96 | 990.2 |
| 20260901090705 | 71 | 86 | 0.0 | 0.0 | 0.00 | 0.33 | 0.00 | 96 | 990.1 |
| 20260901090205 | 71 | 86 | 0.0 | 0.0 | 0.00 | 0.33 | 0.00 | 96 | 990.1 |
| 20260901084704 | 70 | 86 | 0.0 | 0.0 | 0.00 | 0.33 | 0.00 | 96 | 990.0 |
| 20260901084205 | 70 | 86 | 0.0 | 0.0 | 0.00 | 0.33 | 0.00 | 96 | 990.0 |
| 20260901083705 | 70 | 86 | 0.0 | 0.0 | 0.00 | 0.33 | 0.00 | 96 | 990.0 |
| 20260901083205 | 70 | 86 | 0.0 | 0.0 | 0.00 | 0.33 | 0.00 | 96 | 990.1 |
| 20260901081703 | 69 | 86 | 0.0 | 0.0 | 0.00 | 0.33 | 0.00 | 96 | 990.0 |
| 20260901081203 | 69 | 86 | 0.0 | 0.0 | 0.00 | 0.33 | 0.00 | 96 | 989.9 |
| 20260901080205 | 69 | 86 | 0.0 | 0.0 | 0.00 | 0.33 | 0.00 | 95 | 989.9 |
| 20260901074703 | 69 | 86 | 0.0 | 0.0 | 0.00 | 0.33 | 0.00 | 95 | 989.9 |
| 20260901074204 | 69 | 86 | 0.0 | 0.0 | 0.00 | 0.33 | 0.00 | 95 | 989.9 |
| 20260901073704 | 69 | 86 | 0.0 | 0.0 | 0.00 | 0.33 | 0.00 | 95 | 989.9 |
| 20260901073205 | 69 | 86 | 0.0 | 0.0 | 0.00 | 0.33 | 0.00 | 95 | 989.9 |
| 20260901071704 | 69 | 86 | 0.0 | 0.0 | 0.00 | 0.33 | 0.00 | 95 | 990.0 |
| 20260901071203 | 69 | 86 | 0.0 | 0.0 | 0.00 | 0.33 | 0.00 | 95 | 989.9 |
| 20260901070703 | 69 | 86 | 0.0 | 1.0 | 0.00 | 0.33 | 0.00 | 95 | 989.9 |
| 20260901070203 | 69 | 86 | 0.0 | 1.0 | 0.00 | 0.33 | 0.00 | 95 | 989.8 |
| 20260901064705 | 69 | 48 | 0.0 | 0.0 | 0.00 | 0.33 | 0.00 | 94 | 989.9 |
| 20260901064204 | 69 | 48 | 0.0 | 0.0 | 0.00 | 0.33 | 0.00 | 94 | 990.0 |
| 20260901063703 | 69 | 48 | 0.0 | 0.0 | 0.00 | 0.33 | 0.00 | 94 | 990.1 |
| 20260901063204 | 69 | 48 | 0.0 | 0.0 | 0.00 | 0.33 | 0.00 | 94 | 990.1 |
| 20260901061204 | 70 | 48 | 0.0 | 0.0 | 0.00 | 0.33 | 0.00 | 94 | 990.0 |
| 20260901060704 | 70 | 48 | 0.0 | 0.0 | 0.00 | 0.33 | 0.00 | 94 | 990.0 |
| 20260901060204 | 70 | 48 | 0.0 | 0.0 | 0.00 | 0.33 | 0.00 | 94 | 990.0 |
| 20260901054204 | 71 | 48 | 0.0 | 0.0 | 0.15 | 0.33 | 0.00 | 93 | 990.1 |
| 20260901053203 | 71 | 48 | 0.0 | 0.0 | 0.15 | 0.33 | 0.00 | 93 | 990.1 |
| 20260901051704 | 72 | 48 | 0.0 | 0.0 | 0.15 | 0.33 | 0.00 | 93 | 989.9 |
| 20260901051204 | 72 | 48 | 0.0 | 1.0 | 0.15 | 0.33 | 0.00 | 93 | 989.9 |
| 20260901050704 | 72 | 48 | 1.0 | 2.0 | 0.15 | 0.33 | 0.00 | 93 | 990.0 |
| 20260901050204 | 72 | 253 | 1.0 | 2.0 | 0.15 | 0.33 | 0.00 | 93 | 989.9 |
| 20260901044704 | 72 | 230 | 0.0 | 2.0 | 0.00 | 0.17 | 0.15 | 93 | 989.9 |
| 20260901044204 | 73 | 242 | 0.0 | 2.0 | 0.00 | 0.17 | 0.15 | 93 | 990.0 |
| 20260901043703 | 73 | 240 | 0.0 | 2.0 | 0.00 | 0.17 | 0.15 | 93 | 990.0 |
| 20260901041704 | 73 | 271 | 1.0 | 2.0 | 0.00 | 0.17 | 0.15 | 93 | 989.9 |
| 20260901041204 | 73 | 249 | 0.0 | 2.0 | 0.00 | 0.17 | 0.15 | 93 | 990.0 |
| 20260901040704 | 73 | 228 | 0.0 | 2.0 | 0.00 | 0.17 | 0.15 | 93 | 990.0 |
| 20260901040203 | 73 | 241 | 1.0 | 2.0 | 0.00 | 0.17 | 0.15 | 93 | 990.0 |
| 20260901034704 | 73 | 135 | 0.0 | 2.0 | 0.00 | 0.17 | 0.15 | 93 | 990.0 |
| 20260901034205 | 73 | 91 | 1.0 | 2.0 | 0.00 | 0.17 | 0.15 | 93 | 990.0 |
| 20260901033704 | 73 | 213 | 0.0 | 2.0 | 0.00 | 0.17 | 0.15 | 92 | 990.0 |
| 20260901031705 | 73 | 157 | 0.0 | 2.0 | 0.00 | 0.17 | 0.15 | 92 | 990.1 |
| 20260901031204 | 74 | 162 | 0.0 | 2.0 | 0.00 | 0.17 | 0.15 | 92 | 990.2 |
| 20260901030204 | 74 | 131 | 0.0 | 1.0 | 0.00 | 0.17 | 0.15 | 91 | 990.1 |
| 20260901024703 | 75 | 181 | 0.0 | 1.0 | 0.00 | 0.17 | 0.15 | 91 | 990.1 |
| 20260901024203 | 75 | 181 | 0.0 | 2.0 | 0.00 | 0.17 | 0.15 | 91 | 990.1 |
| 20260901023704 | 75 | 242 | 0.0 | 2.0 | 0.00 | 0.17 | 0.15 | 91 | 990.1 |
| 20260901023204 | 75 | 164 | 0.0 | 2.0 | 0.00 | 0.17 | 0.15 | 91 | 990.2 |
| 20260901021704 | 76 | 230 | 0.0 | 2.0 | 0.00 | 0.17 | 0.15 | 90 | 990.1 |
| 20260901021205 | 76 | 268 | 0.0 | 2.0 | 0.00 | 0.17 | 0.15 | 90 | 990.1 |
| 20260901020704 | 76 | 264 | 0.0 | 2.0 | 0.00 | 0.17 | 0.15 | 90 | 990.2 |
| 20260901020204 | 76 | 265 | 1.0 | 2.0 | 0.00 | 0.17 | 0.15 | 90 | 990.2 |
| 20260901014704 | 76 | 249 | 1.0 | 2.0 | 0.00 | 0.17 | 0.15 | 89 | 990.0 |
| 20260901014203 | 76 | 266 | 1.0 | 2.0 | 0.00 | 0.17 | 0.15 | 89 | 989.9 |
| 20260901013204 | 76 | 264 | 0.0 | 2.0 | 0.00 | 0.17 | 0.15 | 89 | 989.9 |
| 20260901011703 | 75 | 115 | 0.0 | 2.0 | 0.00 | 0.17 | 0.15 | 90 | 989.5 |
| 20260901011204 | 75 | 273 | 0.0 | 2.0 | 0.00 | 0.17 | 0.15 | 90 | 989.4 |
| 20260901010703 | 75 | 168 | 0.0 | 1.0 | 0.00 | 0.17 | 0.15 | 90 | 989.3 |
| 20260901010203 | 74 | 201 | 0.0 | 1.0 | 0.00 | 0.17 | 0.15 | 89 | 989.1 |
| 20260901003705 | 75 | 234 | 0.0 | 2.0 | 0.00 | 0.17 | 0.15 | 88 | 989.1 |
| 20260901001704 | 75 | 245 | 0.0 | 2.0 | 0.00 | 0.17 | 0.15 | 88 | 988.8 |
| 20260901001204 | 75 | 111 | 1.0 | 2.0 | 0.00 | 0.17 | 0.15 | 88 | 988.7 |
| 20260901000703 | 75 | 268 | 0.0 | 1.0 | 0.00 | 0.17 | 0.15 | 88 | 988.9 |
| 20260901000205 | 75 | 228 | 0.0 | 1.0 | 0.00 | 0.17 | 0.15 | 88 | 988.9 |
| 20260831234704 | 74 | 242 | 0.0 | 2.0 | 0.00 | 0.17 | 0.15 | 89 | 988.6 |
| 20260831234204 | 74 | 259 | 1.0 | 3.0 | 0.00 | 0.17 | 0.15 | 89 | 988.5 |
| 20260831233703 | 74 | 278 | 2.0 | 3.0 | 0.00 | 0.17 | 0.15 | 90 | 988.5 |
| 20260831233204 | 74 | 261 | 1.0 | 3.0 | 0.00 | 0.17 | 0.15 | 90 | 988.6 |
| 20260831231704 | 74 | 77 | 1.0 | 3.0 | 0.00 | 0.17 | 0.15 | 88 | 987.9 |
| 20260831231204 | 74 | 56 | 2.0 | 5.0 | 0.00 | 0.17 | 0.15 | 88 | 987.7 |
| 20260831230704 | 75 | 62 | 3.0 | 5.0 | 0.00 | 0.17 | 0.15 | 88 | 987.9 |
| 20260831230203 | 75 | 69 | 1.0 | 3.0 | 0.00 | 0.17 | 0.15 | 87 | 988.0 |
| 20260831224704 | 75 | 249 | 1.0 | 3.0 | 0.00 | 0.17 | 0.15 | 87 | 988.6 |
| 20260831224204 | 76 | 271 | 1.0 | 2.0 | 0.00 | 0.17 | 0.15 | 86 | 988.5 |
| 20260831223704 | 76 | 245 | 1.0 | 2.0 | 0.00 | 0.17 | 0.15 | 86 | 988.4 |
| 20260831223205 | 76 | 105 | 1.0 | 2.0 | 0.00 | 0.17 | 0.15 | 86 | 988.4 |
| 20260831221704 | 76 | 175 | 1.0 | 2.0 | 0.00 | 0.17 | 0.15 | 85 | 988.2 |
| 20260831221203 | 76 | 84 | 0.0 | 2.0 | 0.00 | 0.17 | 0.15 | 86 | 988.2 |
| 20260831220704 | 76 | 155 | 2.0 | 3.0 | 0.00 | 0.17 | 0.15 | 85 | 988.3 |
| 20260831220203 | 77 | 179 | 2.0 | 3.0 | 0.00 | 0.17 | 0.15 | 85 | 988.4 |
| 20260831214204 | 78 | 123 | 1.0 | 3.0 | 0.00 | 0.17 | 0.15 | 82 | 988.4 |
| 20260831213704 | 78 | 129 | 2.0 | 3.0 | 0.00 | 0.17 | 0.15 | 83 | 988.3 |
| 20260831213204 | 79 | 144 | 1.0 | 5.0 | 0.00 | 0.17 | 0.15 | 82 | 988.3 |
| 20260831211703 | 78 | 251 | 1.0 | 3.0 | 0.00 | 0.17 | 0.15 | 82 | 988.1 |
| 20260831211203 | 77 | 207 | 1.0 | 2.0 | 0.00 | 0.17 | 0.15 | 83 | 988.1 |
| 20260831210704 | 77 | 110 | 1.0 | 5.0 | 0.00 | 0.17 | 0.15 | 84 | 988.1 |
| 20260831210205 | 77 | 128 | 2.0 | 5.0 | 0.00 | 0.17 | 0.15 | 83 | 988.1 |
| 20260831204705 | 78 | 158 | 2.0 | 5.0 | 0.00 | 0.17 | 0.15 | 82 | 988.1 |
| 20260831204204 | 78 | 143 | 1.0 | 5.0 | 0.00 | 0.17 | 0.15 | 82 | 988.1 |
| 20260831203703 | 79 | 119 | 2.0 | 5.0 | 0.00 | 0.17 | 0.15 | 79 | 988.0 |
| 20260831203204 | 80 | 119 | 1.0 | 3.0 | 0.00 | 0.17 | 0.15 | 78 | 988.1 |
| 20260831201703 | 79 | 302 | 2.0 | 6.0 | 0.00 | 0.17 | 0.15 | 80 | 988.3 |
| 20260831201205 | 80 | 234 | 2.0 | 6.0 | 0.00 | 0.17 | 0.15 | 78 | 988.3 |
| 20260831200704 | 80 | 120 | 3.0 | 6.0 | 0.00 | 0.17 | 0.15 | 79 | 988.2 |
| 20260831194704 | 79 | 229 | 1.0 | 6.0 | 0.00 | 0.17 | 0.15 | 79 | 988.2 |
| 20260831194204 | 80 | 250 | 3.0 | 6.0 | 0.00 | 0.17 | 0.15 | 78 | 988.2 |
| 20260831193704 | 80 | 221 | 2.0 | 6.0 | 0.00 | 0.17 | 0.15 | 77 | 988.1 |
| 20260831193204 | 80 | 240 | 2.0 | 6.0 | 0.00 | 0.17 | 0.15 | 77 | 988.2 |
| 20260831191204 | 80 | 176 | 2.0 | 6.0 | 0.00 | 0.17 | 0.15 | 76 | 988.3 |
| 20260831190704 | 79 | 177 | 2.0 | 6.0 | 0.00 | 0.17 | 0.15 | 78 | 988.4 |
| 20260831190203 | 79 | 262 | 2.0 | 6.0 | 0.00 | 0.17 | 0.15 | 78 | 988.4 |
| 20260831184703 | 80 | 205 | 2.0 | 6.0 | 0.00 | 0.17 | 0.15 | 78 | 988.5 |
| 20260831184204 | 80 | 111 | 2.0 | 6.0 | 0.00 | 0.17 | 0.15 | 76 | 988.4 |
| 20260831183704 | 80 | 101 | 2.0 | 6.0 | 0.00 | 0.17 | 0.15 | 76 | 988.3 |
| 20260831183203 | 80 | 169 | 1.0 | 5.0 | 0.00 | 0.17 | 0.15 | 76 | 988.3 |
| 20260831181705 | 80 | 217 | 2.0 | 5.0 | 0.00 | 0.17 | 0.15 | 77 | 988.4 |
| 20260831181203 | 80 | 261 | 2.0 | 5.0 | 0.00 | 0.17 | 0.15 | 77 | 988.4 |
| 20260831180704 | 80 | 267 | 1.0 | 3.0 | 0.00 | 0.17 | 0.15 | 76 | 988.4 |
| 20260831180203 | 81 | 243 | 1.0 | 5.0 | 0.00 | 0.17 | 0.15 | 75 | 988.3 |
| 20260831174203 | 80 | 185 | 1.0 | 3.0 | 0.00 | 0.17 | 0.15 | 77 | 988.5 |
| 20260831173704 | 79 | 198 | 1.0 | 3.0 | 0.00 | 0.17 | 0.15 | 77 | 988.5 |
| 20260831173204 | 79 | 144 | 1.0 | 5.0 | 0.00 | 0.17 | 0.15 | 78 | 988.6 |
| 20260831171704 | 80 | 172 | 2.0 | 3.0 | 0.00 | 0.17 | 0.15 | 77 | 988.5 |
| 20260831171205 | 79 | 257 | 1.0 | 3.0 | 0.00 | 0.17 | 0.15 | 77 | 988.6 |
| 20260831170703 | 79 | 116 | 2.0 | 5.0 | 0.00 | 0.17 | 0.15 | 80 | 988.7 |
| 20260831170205 | 78 | 295 | 2.0 | 5.0 | 0.00 | 0.17 | 0.15 | 80 | 988.8 |
| 20260831164703 | 77 | 230 | 3.0 | 6.0 | 0.00 | 0.17 | 0.15 | 81 | 988.9 |
| 20260831164203 | 77 | 201 | 1.0 | 5.0 | 0.00 | 0.17 | 0.15 | 80 | 988.9 |
| 20260831163704 | 77 | 142 | 1.0 | 5.0 | 0.00 | 0.17 | 0.15 | 81 | 989.0 |
| 20260831163204 | 77 | 243 | 3.0 | 5.0 | 0.00 | 0.17 | 0.15 | 82 | 989.0 |
| 20260831161704 | 77 | 284 | 2.0 | 5.0 | 0.00 | 0.17 | 0.15 | 83 | 989.0 |
| 20260831161204 | 76 | 221 | 1.0 | 5.0 | 0.00 | 0.17 | 0.15 | 83 | 989.1 |
| 20260831160704 | 76 | 122 | 2.0 | 5.0 | 0.00 | 0.17 | 0.15 | 84 | 989.0 |
| 20260831160204 | 76 | 194 | 2.0 | 3.0 | 0.00 | 0.17 | 0.15 | 84 | 989.1 |
| 20260831154704 | 75 | 96 | 2.0 | 3.0 | 0.00 | 0.17 | 0.15 | 86 | 989.2 |
| 20260831154203 | 75 | 173 | 2.0 | 6.0 | 0.00 | 0.17 | 0.15 | 85 | 989.2 |
| 20260831153204 | 74 | 228 | 1.0 | 6.0 | 0.00 | 0.17 | 0.15 | 88 | 989.2 |
| 20260831151704 | 72 | 122 | 2.0 | 5.0 | 0.00 | 0.17 | 0.15 | 90 | 989.3 |
| 20260831151204 | 72 | 203 | 2.0 | 6.0 | 0.00 | 0.17 | 0.15 | 90 | 989.2 |
| 20260831150704 | 72 | 129 | 1.0 | 6.0 | 0.00 | 0.17 | 0.15 | 90 | 989.2 |
| 20260831150203 | 73 | 108 | 2.0 | 6.0 | 0.00 | 0.17 | 0.15 | 91 | 989.2 |
| 20260831144704 | 73 | 189 | 2.0 | 3.0 | 0.00 | 0.17 | 0.15 | 91 | 989.3 |
| 20260831144203 | 73 | 154 | 2.0 | 5.0 | 0.00 | 0.17 | 0.15 | 91 | 989.3 |
| 20260831143704 | 73 | 215 | 2.0 | 5.0 | 0.00 | 0.17 | 0.15 | 91 | 989.3 |
| 20260831143204 | 73 | 174 | 3.0 | 5.0 | 0.00 | 0.17 | 0.15 | 91 | 989.4 |
| 20260831141204 | 74 | 199 | 2.0 | 6.0 | 0.00 | 0.17 | 0.15 | 91 | 989.5 |
| 20260831140703 | 74 | 208 | 1.0 | 6.0 | 0.00 | 0.17 | 0.15 | 91 | 989.5 |
| 20260831140204 | 74 | 152 | 2.0 | 6.0 | 0.00 | 0.17 | 0.15 | 91 | 989.4 |
| 20260831134704 | 73 | 184 | 1.0 | 5.0 | 0.00 | 0.17 | 0.15 | 91 | 989.3 |